Location: Rosthern
(52.6623°N, 106.3318°W)
Time: 22:58:34
(UTC-06:00)

BlueWalker 3 - Visible Passes

Search period start: 07 December 2025 00:00
Search period end: 17 December 2025 00:00
Orbit: 455 x 462 km, 53.2° (Epoch: 06 December)

Date Brightness Start Highest point End Pass type
(mag) Time Alt. Az. Time Alt. Az. Time Alt. Az.
07 Dec 3.9 18:50:54 10° W 18:53:57 25° SW 18:56:58 10° SSE visible
08 Dec 3.7 18:15:59 10° W 18:19:11 30° SSW 18:22:24 10° SSE visible
09 Dec 3.5 17:41:05 10° W 17:44:25 35° SSW 17:47:44 10° SE visible
10 Dec 5.3 18:45:42 10° WSW 18:46:23 10° SW 18:47:03 10° SW visible
11 Dec 5.1 18:09:57 10° WSW 18:11:38 13° SW 18:13:21 10° SSW visible
12 Dec 5.0 17:34:39 10° W 17:36:53 16° SW 17:39:06 10° S visible
